Regional Weather Roundup
Issued by NWS

Home | Current Version | Previous Version | Graphics & Text | Print | Product List | Glossary On
Versions: 1 2 3 4 5 6 7 8 9 10 11 12 13 14 15 16 17 18 19 20 21 22 23 24 25 26 27 28 29 30 31 32 33 34 35 36 37 38 39 40 41 42 43 44 45 46 47 48 49 50
000
ASUS45 KABQ 181101
RWRNM
NEW MEXICO REGIONAL WEATHER ROUNDUP
NATIONAL WEATHER SERVICE ALBUQUERQUE NM
400 AM MST WED JAN 18 2017

NOTE: "FAIR" MEANS FEW OR NO CLOUDS BELOW 12,000 FEET AGL WITH NO
       SIGNIFICANT WEATHER OR OBSTRUCTIONS TO VISION.

      THIS PRODUCT IS RELEASED AS TWO VERSIONS.  ONE VERSION NEAR
      THE TOP OF THE HOUR CONTAINING PRELIMINARY DATA FROM ALBUQUERQUE
      AND OTHER STATIONS.  A FINAL VERSION WITH ADDITIONAL DATA IS
      ISSUED ABOUT 10 MINUTES AFTER THE HOUR.

NMZ501-503-504-510>518-181200-
NORTHWEST PLATEAU/NORTHCENTRAL MOUNTAINS

CITY           SKY/WX    TMP DP  RH WIND       PRES   REMARKS
FARMINGTON     MOCLDY    30  28  92 W5        30.13F WCI  25
LOS ALAMOS     FAIR      32  26  80 CALM      30.11F
SANTA FE       MOCLDY    28  27  96 W3        30.10F
TAOS           CLOUDY    28  19  69 CALM      30.10F
ANGEL FIRE     CLOUDY    10   8  91 CALM      30.09F FOG

$$
NMZ402-403-502-505>509-181200-
WESTCENTRAL MOUNTAINS/SOUTHWEST MOUNTAINS

CITY           SKY/WX    TMP DP  RH WIND       PRES   REMARKS
GALLUP         MOCLDY    29  28  96 CALM      30.15F
GRANTS         CLOUDY    29  29  99 NW9       30.15F WCI  21
SILVER CITY    FAIR      31  31  96 NW5       30.15F WCI  27

$$
NMZ407-409-411-412-181200-
SOUTHERN DESERTS

CITY           SKY/WX    TMP DP  RH WIND       PRES   REMARKS
DEMING         FAIR      33  32  96 NW7       30.14F WCI  27
LAS CRUCES     FOG       32  32  99 CALM      30.15F VSB 1/2
HOLLOMAN AFB   MOCLDY    39  39 100 CALM      30.17F
ALAMOGORDO     MOCLDY    39  39 100 SE3       30.15F FOG
T OR C         FAIR      36  34  92 CALM      30.13F

$$
NMZ519>523-181200-
CENTRAL VALLEYS/CENTRAL HIGHLANDS

CITY           SKY/WX    TMP DP  RH WIND       PRES   REMARKS
ALBUQUERQUE    MOCLDY    36  33  89 CALM      30.13S
DOUBLE EAGLE   CLOUDY    33  32  95 N5        30.12F WCI  28
MORIARTY ARPT  FAIR      24  21  89 N3        30.11F
CLINES CORNERS FAIR      26  24  92 NW13      30.09F WCI  15
BELEN          CLOUDY    37  34  87 CALM      30.13S
SOCORRO        CLOUDY    35  35  99 CALM      30.13F FOG

$$
NMZ524>526-539-540-181200-
SOUTHCENTRAL MOUNTAINS

CITY           SKY/WX    TMP DP  RH WIND       PRES   REMARKS
RUIDOSO        FOG       30  30 100 NW7       30.13F VSB 3/4 WCI  23

$$
NMZ527>531-181200-
NORTHEAST HIGHLANDS/NORTHEAST PLAINS

CITY           SKY/WX    TMP DP  RH WIND       PRES   REMARKS
LAS VEGAS      FAIR      23  21  92 NW3       30.04F
RATON          FOG       30  28  92 CALM      30.03F VSB 1/2
CLAYTON        FAIR      37  37 100 SW13      30.01F WCI  29

$$
NMZ532>537-181200-
EASTCENTRAL PLAINS

CITY           SKY/WX    TMP DP  RH WIND       PRES   REMARKS
TUCUMCARI      FAIR      35  34  96 S7        30.05F WCI  29
CANNON AFB     FAIR      37  37 100 W8        30.07F WCI  31
CLOVIS AIRPORT FAIR      36  34  93 SW6       30.08F WCI  31

$$
NMZ028-029-538-181200-
SOUTHEAST PLAINS

CITY           SKY/WX    TMP DP  RH WIND       PRES   REMARKS
ROSWELL        FAIR      40  38  93 S6        30.10F
ARTESIA        FOG       41  41 100 SE5       30.12F VSB<1/4
CARLSBAD       FAIR      39  38  96 CALM      30.11F


$$



USA.gov is the U.S. government's official web portal to all federal, state and local government web resources and services.